Montgomery, AL

2:47 PM CST on December 12, 2017 (GMT -0600)
Montgomery Regional

Weather History for KMGM - August, 2013

Change the Weather History Date:

Thursday, August 8, 2013

  Actual Average Record
Temperature  
Mean Temperature 85 °F 82 °F  
Max Temperature 95 °F 92 °F 103 °F (2007)
Min Temperature 75 °F 72 °F 63 °F (1950)
Cooling Degree Days 20 17  
Month to date cooling degree days 148 136  
Year to date cooling degree days 1474 1415  
Since 1 June cooling degree days 1115 1076  
Growing Degree Days 35 (Base 50)    
Moisture  
Dew Point 74 °F    
Average Humidity 72    
Maximum Humidity 94    
Minimum Humidity 49    
Precipitation  
Precipitation 0.91 in 0.12 in 2.57 in (1912)
Month to date precipitation 1.95 1.08  
Year to date precipitation 40.87 33.83  
Sea Level Pressure  
Sea Level Pressure 29.98 in    
Wind  
Wind Speed 3 mph (ESE)    
Max Wind Speed 25 mph    
Max Gust Speed 30 mph    
Visibility 8 miles    
Events Rain , Thunderstorm    
T = Trace of Precipitation, MM = Missing Value Source: NWS Daily Summary

Daily Weather History Graph

Daily Weather History Graph

Search for Another Location

Airport or City:

Trip Planner

Search our weather history database for the weather conditions in past years. The results will help you decide how hot, cold, wet, or windy it might be!

Date:

Astronomy

Aug. 08, 2013 Rise Set
Actual Time 6:05 AM CDT 7:36 PM CDT
Civil Twilight 5:38 AM CDT 8:02 PM CDT
Nautical Twilight 5:07 AM CDT 8:34 PM CDT
Astronomical Twilight 4:34 AM CDT 9:07 PM CDT
Moon 7:41 AM CDT (8/8) 8:26 PM CDT (8/8)
Length of Visible Light 14h 23m
Length of Day
13h 31m
Waxing Crescent, 3% of the Moon is Illuminated
Aug 8
Waxing Crescent
Aug 14
First Quarter
Aug 20
Full
Aug 28
Last Quarter
Sep 5
New

Hourly Weather History & Observations

Time (CDT) Temp. Heat Index Dew Point Humidity Pressure Visibility Wind Dir Wind Speed Gust Speed Precip Events Conditions
12:53 AM 77.0 °F - 73.0 °F 88% 29.96 in 10.0 mi Calm Calm - N/A   Clear
1:53 AM 75.9 °F - 73.0 °F 91% 29.97 in 10.0 mi ENE 4.6 mph - N/A   Clear
2:53 AM 75.9 °F - 72.0 °F 87% 29.96 in 10.0 mi Calm Calm - N/A   Clear
3:53 AM 75.9 °F - 72.0 °F 87% 29.96 in 10.0 mi Calm Calm - N/A   Clear
4:53 AM 75.0 °F - 72.0 °F 90% 29.96 in 8.0 mi East 5.8 mph - N/A   Clear
5:53 AM 75.0 °F - 72.0 °F 90% 29.98 in 9.0 mi East 3.5 mph - N/A   Clear
6:53 AM 75.9 °F - 73.0 °F 91% 29.99 in 6.0 mi East 4.6 mph - N/A   Clear
7:53 AM 78.1 °F - 73.9 °F 87% 29.99 in 8.0 mi ESE 4.6 mph - N/A   Clear
8:53 AM 82.0 °F 87.9 °F 73.9 °F 76% 30.00 in 10.0 mi SE 5.8 mph - N/A   Clear
9:53 AM 84.9 °F 92.1 °F 73.9 °F 69% 30.01 in 10.0 mi ESE 4.6 mph - N/A   Partly Cloudy
10:53 AM 88.0 °F 96.5 °F 73.9 °F 63% 30.02 in 10.0 mi SE 4.6 mph - N/A   Scattered Clouds
11:53 AM 90.0 °F 97.9 °F 73.0 °F 57% 30.02 in 10.0 mi SW 3.5 mph - N/A   Mostly Cloudy
12:53 PM 91.9 °F 100.7 °F 73.0 °F 54% 29.99 in 10.0 mi Variable 3.5 mph - N/A   Mostly Cloudy
1:53 PM 91.0 °F 98.2 °F 72.0 °F 53% 29.97 in 10.0 mi Calm Calm - N/A   Mostly Cloudy
2:53 PM 93.0 °F 100.7 °F 72.0 °F 50% 29.95 in 10.0 mi NNE 3.5 mph - N/A   Mostly Cloudy
3:11 PM 93.2 °F 100.5 °F 71.6 °F 49% 29.97 in 10.0 mi ENE 5.8 mph - N/A Thunderstorm Mostly Cloudy
3:37 PM 78.8 °F - 73.4 °F 83% 29.99 in 1.8 mi East 19.6 mph 29.9 mph 0.10 in Rain , Thunderstorm Rain
3:40 PM 78.8 °F - 73.4 °F 83% 30.00 in 1.2 mi ESE 17.3 mph 29.9 mph 0.19 in Rain , Thunderstorm Rain
3:53 PM 75.9 °F - 72.0 °F 87% 29.99 in 0.8 mi SSE 5.8 mph - 0.58 in Rain , Thunderstorm Thunderstorms and Rain
4:08 PM 75.2 °F - 73.4 °F 94% 29.98 in 2.0 mi SSE 3.5 mph - 0.22 in Rain Rain
4:25 PM 78.8 °F - 73.4 °F 83% 29.98 in 10.0 mi SE 4.6 mph - 0.26 in Rain Light Rain
4:53 PM 79.0 °F - 73.9 °F 84% 29.97 in 6.0 mi SE 3.5 mph - 0.27 in   Haze
5:53 PM 81.0 °F 87.3 °F 75.9 °F 85% 29.96 in 10.0 mi East 3.5 mph - 0.06 in   Mostly Cloudy
6:53 PM 82.0 °F 89.4 °F 75.9 °F 82% 29.97 in 10.0 mi Calm Calm - N/A   Clear
7:53 PM 81.0 °F 87.3 °F 75.9 °F 85% 29.98 in 10.0 mi Calm Calm - N/A   Clear
8:53 PM 80.1 °F 85.4 °F 75.9 °F 87% 29.99 in 10.0 mi Calm Calm - N/A   Clear
9:11 PM 80.6 °F 86.2 °F 75.2 °F 84% 30.00 in 9.0 mi East 3.5 mph - N/A   Mostly Cloudy
9:48 PM 80.6 °F 86.2 °F 75.2 °F 84% 30.01 in 10.0 mi Calm Calm - N/A   Scattered Clouds
9:53 PM 79.0 °F - 75.0 °F 88% 30.00 in 10.0 mi South 4.6 mph - N/A   Partly Cloudy
10:53 PM 78.1 °F - 75.0 °F 90% 30.00 in 10.0 mi Calm Calm - N/A   Clear
11:53 PM 77.0 °F - 73.9 °F 90% 29.98 in 10.0 mi Calm Calm - N/A   Clear